DW3897 Weather Reports


Display with metric or nautical units.
time (UTC)temp
F
wind
direction
speed
MPH
gust
MPH
rain 1hr
in
rain 24hr
in
rain mn
in
humidity
%
barometer
mb
20260510103051 52 144 0.0 0.0 0.01 0.26 0.05 96 1010.1
20260510101534 52 268 0.0 1.0 0.00 0.25 0.04 96 1009.8
20260510100032 52 251 0.0 2.0 0.00 0.25 0.04 96 1009.6
20260510094525 52 270 0.0 1.0 0.00 0.25 0.04 96 1009.4
20260510093014 52 117 0.0 0.0 0.00 0.25 0.04 96 1009.3
20260510091556 51 117 0.0 2.0 0.00 0.25 0.04 96 1009.1
20260510090055 51 112 0.0 1.0 0.00 0.25 0.04 95 1008.9
20260510084537 52 107 0.0 0.0 0.01 0.25 0.04 95 1009.0
20260510083035 52 107 0.0 0.0 0.01 0.25 0.04 95 1009.2
20260510081525 52 192 0.0 0.0 0.01 0.25 0.04 95 1009.2
20260510080021 52 220 0.0 1.0 0.01 0.25 0.04 95 1009.1
20260510074522 52 96 0.0 1.0 0.01 0.24 0.03 95 1008.7
20260510073021 52 125 0.0 2.0 0.01 0.24 0.03 95 1009.0
20260510071519 52 169 0.0 2.0 0.01 0.24 0.03 95 1009.2
20260510070018 52 193 0.0 0.0 0.01 0.24 0.03 95 1009.8
20260510064517 52 172 0.0 0.0 0.00 0.23 0.02 95 1009.8
20260510063016 52 169 0.0 1.0 0.00 0.23 0.02 94 1009.8
20260510061557 53 181 0.0 0.0 0.01 0.23 0.02 94 1009.7
20260510060100 53 153 0.0 2.0 0.01 0.23 0.02 94 1009.6
20260510054538 53 258 0.0 6.0 0.01 0.23 0.02 94 1009.5
20260510053036 53 248 0.0 1.0 0.02 0.23 0.02 94 1009.4
20260510051519 53 250 0.0 3.0 0.01 0.22 0.01 94 1009.0
20260510050018 53 149 0.0 2.0 0.01 0.22 0.01 94 1008.9
20260510044559 53 122 0.0 3.0 0.02 0.22 0.01 93 1009.1
20260510044501 53 122 0.0 3.0 0.02 0.22 0.01 93 1009.0
20260510043144 53 198 0.0 0.0 0.01 0.21 0.00 93 1009.3
20260510041541 53 136 0.0 2.0 0.01 0.21 0.21 93 1009.5
20260510040039 53 138 0.0 3.0 0.02 0.21 0.21 94 1009.2
20260510034520 53 96 0.0 2.0 0.01 0.20 0.20 94 1009.0
20260510033020 53 92 0.0 1.0 0.01 0.20 0.20 94 1009.0
20260510031503 53 88 0.0 1.0 0.01 0.20 0.20 94 1009.2
20260510030001 53 132 0.0 2.0 0.01 0.19 0.19 94 1009.2
20260510024546 53 110 0.0 2.0 0.01 0.19 0.19 95 1009.3
20260510023053 53 107 0.0 1.0 0.01 0.19 0.19 95 1009.5
20260510021526 53 107 0.0 3.0 0.01 0.19 0.19 95 1009.5
20260510020025 53 109 0.0 2.0 0.01 0.18 0.18 95 1009.1
20260510014507 53 130 0.0 2.0 0.01 0.18 0.18 95 1009.3
20260510013012 53 118 0.0 1.0 0.01 0.18 0.18 96 1009.3
20260510011607 53 112 0.0 3.0 0.01 0.18 0.18 96 1009.5
20260510010103 53 118 0.0 4.0 0.00 0.17 0.17 96 1009.3
20260510004528 53 86 0.0 0.0 0.01 0.17 0.17 96 1009.2
20260510003028 53 84 0.0 0.0 0.01 0.17 0.17 96 1009.0
20260510001510 53 5 0.0 0.0 0.01 0.17 0.17 96 1008.8
20260510000009 53 5 0.0 0.0 0.02 0.17 0.17 96 1008.5
20260509234556 53 5 0.0 0.0 0.01 0.16 0.16 97 1008.6
20260509233053 53 5 0.0 0.0 0.01 0.16 0.16 97 1008.5
20260509231533 54 5 0.0 4.0 0.01 0.16 0.16 97 1008.3
20260509230033 54 213 0.0 1.0 0.01 0.15 0.15 97 1008.3
20260509224517 54 5 0.0 1.0 0.01 0.15 0.15 97 1008.3
20260509223015 54 30 0.0 0.0 0.02 0.15 0.15 98 1008.3
20260509221555 53 30 0.0 0.0 0.01 0.14 0.14 98 1008.4
20260509220053 53 30 0.0 0.0 0.01 0.14 0.14 98 1008.5
20260509214534 52 30 0.0 0.0 0.02 0.14 0.14 97 1008.7
20260509213035 52 30 0.0 0.0 0.02 0.13 0.13 97 1008.8
20260509211527 52 30 0.0 0.0 0.02 0.13 0.13 97 1008.8
20260509210013 52 30 0.0 0.0 0.02 0.12 0.12 97 1008.9
20260509204611 51 30 0.0 0.0 0.02 0.12 0.12 97 1009.2
20260509203058 51 30 0.0 0.0 0.02 0.11 0.11 97 1009.4
20260509201550 51 28 0.0 0.0 0.02 0.11 0.11 97 1009.6
20260509200032 51 28 0.0 0.0 0.02 0.10 0.10 97 1009.6
20260509194531 51 19 0.0 0.0 0.02 0.10 0.10 97 1009.9
20260509193012 51 325 0.0 1.0 0.02 0.09 0.09 97 1010.0
20260509191512 51 269 0.0 2.0 0.02 0.09 0.09 97 1010.1
20260509190054 50 71 0.0 0.0 0.02 0.08 0.08 97 1010.1
20260509184549 50 71 0.0 0.0 0.02 0.08 0.08 97 1010.2
20260509183036 50 71 0.0 0.0 0.02 0.07 0.07 97 1010.3
20260509181529 49 348 0.0 0.0 0.02 0.07 0.07 96 1010.5
20260509180006 49 344 0.0 0.0 0.01 0.06 0.06 96 1010.6
20260509174507 49 342 0.0 2.0 0.01 0.06 0.06 96 1010.7
20260509173047 49 38 0.0 1.0 0.01 0.05 0.05 96 1010.9
20260509171547 49 300 0.0 2.0 0.01 0.05 0.05 96 1010.9
20260509170025 49 294 0.0 0.0 0.01 0.05 0.05 96 1011.0
20260509164526 49 294 0.0 0.0 0.02 0.05 0.05 97 1011.1
20260509163004 48 290 0.0 0.0 0.01 0.04 0.04 96 1011.2
20260509161503 48 290 0.0 0.0 0.01 0.04 0.04 96 1011.5
20260509160043 47 277 0.0 0.0 0.01 0.04 0.04 96 1011.7
20260509154540 47 277 0.0 0.0 0.01 0.03 0.03 97 1012.0
20260509153023 46 277 0.0 1.0 0.01 0.03 0.03 96 1012.3
20260509151519 45 275 0.0 0.0 0.02 0.03 0.03 95 1012.3
20260509150057 45 275 0.0 0.0 0.02 0.03 0.03 95 1012.5
20260509144554 44 275 0.0 0.0 0.01 0.02 0.02 94 1012.6
20260509143036 44 275 0.0 0.0 0.01 0.02 0.02 94 1012.4
20260509141536 44 275 0.0 0.0 0.00 0.01 0.01 93 1012.5
20260509140019 44 275 0.0 0.0 0.01 0.01 0.01 93 1012.4
20260509134517 44 275 0.0 0.0 0.01 0.01 0.01 93 1012.4
20260509133106 44 275 0.0 0.0 0.01 0.01 0.01 92 1012.3
20260509131600 44 275 0.0 0.0 0.01 0.01 0.01 93 1012.5
20260509130024 43 275 0.0 0.0 0.00 0.00 0.00 93 1012.5
20260509124538 43 275 0.0 0.0 0.00 0.00 0.00 92 1012.6
20260509123018 43 275 0.0 0.0 0.00 0.00 0.00 91 1012.7
20260509121518 42 275 0.0 0.0 0.00 0.00 0.00 90 1012.8
20260509120101 42 275 0.0 0.0 0.00 0.00 0.00 89 1012.8
20260509114602 42 275 0.0 0.0 0.00 0.00 0.00 88 1012.9
20260509113044 42 275 0.0 0.0 0.00 0.00 0.00 87 1012.9
20260509111541 42 275 0.0 0.0 0.00 0.00 0.00 87 1012.8
20260509110022 42 275 0.0 0.0 0.00 0.00 0.00 87 1012.6
20260509104522 41 275 0.0 0.0 0.00 0.00 0.00 86 1012.4